Regional Weather Roundup
Issued by NWS

Home | Current Version | Previous Version | Graphics & Text | Print | Product List | Glossary On
Versions: 1 2 3 4 5 6 7 8 9 10 11 12 13 14 15 16 17 18 19 20 21 22 23 24 25 26 27 28 29 30 31 32 33 34 35 36 37 38 39 40 41 42 43 44 45 46 47 48 49 50
000
ASUS45 KTFX 220804
RWRMT
MONTANA HOURLY WEATHER ROUNDUP
NATIONAL WEATHER SERVICE GREAT FALLS MT
104 AM MST MON DEC 22 2014

NOTE: "FAIR" INDICATES FEW OR NO CLOUDS BELOW 12000 FEET WITH NO
SIGNIFICANT WEATHER AND/OR OBSTRUCTIONS TO VISIBILITY.

* THESE STATIONS ARE NOT UNDER NWS QUALITY CONTROL. THEY DO NOT
   REPORT WEATHER SUCH AS PRECIPITATION OR FOG.

MTZ001>007-043-220900-
WEST OF THE DIVIDE
CITY           SKY/WX    TMP DP  RH WIND       PRES   REMARKS
KALISPELL      CLOUDY    34  28  79 CALM      29.82S
MISSOULA       LGT RAIN  36  30  79 NW6       29.88R WCI  31
BUTTE          LGT SNOW  28  27  96 CALM      29.82F VSB 1 3/4
MULLAN PASS    FOG       27  27 100 NW8       29.86R VSB 1 1/4 WCI  19
* ESSEX        N/A       34  30  85 W4G9       N/A
* LINCOLN      N/A       31  30  96 SE3        N/A
* LOOKOUT PASS N/A       34  29  82 N7G12      N/A   WCI  28
* POLSON       N/A       35  28  76 N/A        N/A
* RONAN APT    MOCLDY    37  30  76 N/A        N/A
* SEELEY LAKE  N/A       32  31  96 SW1        N/A
* THOMP F APT  CLOUDY    25  19  78 W2         N/A
* YAAK HILL    N/A       35  30  82 N/A        N/A
$$

MTZ008-052>055-220900-
SOUTHWEST MONTANA
CITY           SKY/WX    TMP DP  RH WIND       PRES   REMARKS
BOZEMAN        CLOUDY    34  25  70 N5        29.80F WCI  29
DILLON         CLOUDY    32  25  75 SW14      29.83F WCI  22
* W YELLOWSTON CLOUDY    26  22  85 SW4G9      N/A
* THREE FORKS  CLOUDY    37  32  82 N/A        N/A
* BOULDER HILL N/A       31  16  54 S6         N/A   WCI  25
* MONIDA PASS  N/A       24  17  75 NW6        N/A   WCI  17
* RAYNOLDS PAS N/A       26  17  69 SW8        N/A   WCI  18
* WHITEHALL    N/A       35  25  67 W7G16      N/A   WCI  29
* WISE RIVER   N/A       29  25  85 W4         N/A
$$

MTZ009>010-012-014-046-048-049-054-220900-
EAST SLOPES AND CENTRAL MONTANA
CITY           SKY/WX    TMP DP  RH WIND       PRES   REMARKS
CUT BANK       CLEAR     30  21  69 W12       29.69R WCI  20
GREAT FALLS    PTCLDY    28  23  81 SW12      29.71R WCI  18
HELENA         MOCLDY    37  27  67 W12       29.77F WCI  29
* DEARBORN     N/A       32  23  69 SE8        N/A   WCI  25
* EAST GLACIER N/A       34  16  48 NW23G34    N/A   WCI  22
* MONARCH      N/A       32  14  47 W21G28     N/A   WCI  20
* PENDROY      N/A       33  20  59 NW18G25    N/A   WCI  22
* ROGERS PASS  N/A       29  25  85 SE5        N/A   WCI  24
* SWEET GRASS  N/A       30  19  64 NW8G13     N/A   WCI  22
$$

MTZ011-013-016-021-035-040-045-047-050-051-220900-
NORTH CENTRAL MONTANA
CITY           SKY/WX    TMP DP  RH WIND       PRES   REMARKS
HAVRE          PTCLDY    32  27  82 SW12      29.67R WCI  23
LEWISTOWN      CLOUDY    36  25  64 NW9       29.68F WCI  29
* N BAR RANCH  MOCLDY    34  23  64 NW23G29   29.66R WCI  22
* CHESTER      N/A       29  24  82 N1         N/A
* DENTON       N/A       36  23  59 W8G16      N/A   WCI  30
* GEYSER       N/A       35  18  50 W13G22     N/A   WCI  26
* JUDITH GAP   N/A       34  16  48 W16        N/A   WCI  24
* LOMA         N/A       32  25  75 SW3        N/A
$$

MTZ017>020-022>027-061-062-220900-
NORTHEAST MONTANA
CITY           SKY/WX    TMP DP  RH WIND       PRES   REMARKS
GLASGOW        CLOUDY    34  28  79 NW24G30   29.52R WCI  22
GLENDIVE       CLOUDY    36  32  85 W14       29.49R WCI  27
JORDAN         MOCLDY    36  30  79 NW16      29.56R WCI  26
SIDNEY         CLOUDY    36  32  85 W16G22    29.45R WCI  26
WOLF POINT     CLOUDY    34  28  79 W16G26    29.50R WCI  24
* BEAVER HILL  N/A       33  31  92 W24G32     N/A   WCI  20
* CIRCLE       N/A       36  32  85 W14        N/A   WCI  27
* LINDSAY DVD  N/A       34  31  89 W29G40     N/A   WCI  20
* SACO         N/A       34  29  82 W19G24     N/A   WCI  23
$$

MTZ028>042-056>058-220900-
SOUTHCENTRAL AND SOUTHEAST MONTANA
CITY           SKY/WX    TMP DP  RH WIND       PRES   REMARKS
BAKER          CLOUDY    37 N/A N/A W24G37    29.48R WCI  26
BILLINGS       CLEAR     37  19  48 W26       29.69F WCI  25
LIVINGSTON     CLOUDY    37  21  52 NW10      29.75F WCI  30
MILES CITY     PTCLDY    39  28  65 W18       29.54S WCI  30
* LAUREL APT   CLEAR     39  16  39 W21G30     N/A   WCI  29
* ROUNDUP APT  PTCLDY    37  19  48 W11G16     N/A   WCI  29
* ALZADA       N/A       35  32  89 SW14G20    N/A   WCI  26
* HYSHAM       N/A       38  22  53 W14G22     N/A   WCI  30
* LAME DEER    N/A       36  24  62 NW16G26    N/A   WCI  26
* REED POINT   N/A       39  18  43 W14G19     N/A   WCI  31
* ROSCOE HILL  N/A       34   7  32 W10G21     N/A   WCI  26
$$

REGIONAL REPORTS...DAKOTAS
CITY           SKY/WX    TMP DP  RH WIND       PRES   REMARKS
WILLISTON      CLOUDY    32  28  85 CALM      29.41S
DICKINSON      CLOUDY    37  34  89 W16       29.38S WCI  28
BEACH          LGT RAIN  32  32 100 W20G28    29.45R WCI  20
CROSBY         MOCLDY    27  27 100 SW6       29.42R WCI  20
WATFORD CITY   FOG       34  34 100 W6        29.39R WCI  29
BISMARCK       FOG       28  28 100 SE5       29.44F VSB 3    WCI  22
GRAND FORKS    FOG       34  34 100 SE8       29.53F WCI  27
FARGO          FOG       37  36  96 SE9       29.52S WCI  30
BUFFALO SD     MOCLDY    37  32  82 NW32G46   29.40S WCI  24
RAPID CITY     CLOUDY    39  30  70 NW31G47   29.50S WCI  27
$$

REGIONAL REPORTS...WYOMING/IDAHO/WASHINGTON
CITY           SKY/WX    TMP DP  RH WIND       PRES   REMARKS
GILLETTE       MOCLDY    32  28  85 NW20      29.63F WCI  20
SHERIDAN       MOCLDY    39  21  48 NW18      29.66F WCI  30
CODY           PTCLDY    36  16  44 W8        29.73S WCI  30
YELLOWSTONE LA MOCLDY    23  18  81 W9G18     29.80F WCI  13
SALMON         CLOUDY    34  28  79 SE5       29.91R WCI  29
MULLAN PASS    FOG       27  27 100 NW8       29.86S VSB 1 1/4 WCI  19
SAND POINT     PTCLDY    37  32  82 W8        29.91R WCI  31
SPOKANE        CLOUDY    39  34  82 W15       29.96R WCI  31
$$

REGIONAL REPORTS...SASKATCHEWAN
CITY           SKY/WX    TMP DP  RH WIND       PRES   REMARKS
SWIFT CURRENT  LGT SNOW  19  19 100 NW18G24   29.53R VSB 3    WCI   4

$$



USA.gov is the U.S. government's official web portal to all federal, state and local government web resources and services.